EW1714 Weather Reports


time (UTC)temp
C
wind
direction
speed
KPH
gust
KPH
rain 1hr
cm
rain 24hr
cm
rain mn
cm
humidity
%
barometer
mb
20260507192508 20 316 3.2 19.3 0.00 0.64 0.03 31 1006.2
20260507192009 20 280 1.6 12.9 0.00 0.64 0.03 31 1006.3
20260507191529 20 4 0.0 16.1 0.00 0.64 0.03 36 1006.3
20260507191009 20 355 1.6 19.3 0.00 0.66 0.03 33 1006.4
20260507190510 20 70 0.0 19.3 0.00 0.66 0.03 32 1006.4
20260507190015 20 8 6.4 16.1 0.00 0.66 0.03 31 1006.5
20260507185506 20 288 0.0 14.5 0.00 0.69 0.03 31 1006.5
20260507185007 20 350 0.0 14.5 0.00 0.69 0.03 30 1006.4
20260507184517 20 309 3.2 14.5 0.00 0.71 0.03 32 1006.6
20260507184005 20 193 1.6 12.9 0.00 0.74 0.03 32 1006.7
20260507183508 20 284 0.0 14.5 0.00 0.76 0.03 33 1006.7
20260507183035 20 292 1.6 14.5 0.00 0.76 0.03 30 1007.0
20260507182508 20 283 0.0 11.3 0.00 0.79 0.03 31 1006.9
20260507182010 20 254 0.0 14.5 0.00 0.79 0.03 31 1007.1
20260507181526 21 358 0.0 14.5 0.00 0.81 0.03 30 1007.2
20260507181009 21 177 0.0 12.9 0.00 0.81 0.03 32 1007.3
20260507180510 20 16 1.6 17.7 0.00 0.81 0.03 32 1007.2
20260507180027 20 181 0.0 20.9 0.00 0.84 0.03 30 1007.2
20260507175509 20 284 0.0 20.9 0.00 0.84 0.03 33 1007.1
20260507175009 20 338 1.6 16.1 0.00 0.84 0.03 33 1007.1
20260507174514 20 248 4.8 16.1 0.00 0.84 0.03 34 1007.2
20260507174002 20 314 0.0 19.3 0.00 0.84 0.03 32 1007.1
20260507173502 20 136 1.6 19.3 0.00 0.84 0.03 35 1007.1
20260507173007 20 338 6.4 19.3 0.00 0.84 0.03 34 1007.1
20260507172504 20 236 4.8 17.7 0.00 0.84 0.03 34 1007.2
20260507172003 20 318 3.2 17.7 0.00 0.84 0.03 34 1007.0
20260507171504 20 207 0.0 17.7 0.00 0.84 0.03 33 1007.0
20260507171004 20 200 1.6 12.9 0.00 0.84 0.03 34 1007.1
20260507170504 20 163 0.0 12.9 0.00 0.84 0.03 36 1007.0
20260507170006 20 345 1.6 14.5 0.00 0.84 0.03 35 1007.2
20260507165503 20 311 1.6 14.5 0.00 0.84 0.03 40 1007.2
20260507165003 20 290 0.0 8.0 0.00 0.84 0.03 35 1007.3
20260507164507 20 321 0.0 6.4 0.00 0.84 0.03 38 1007.4
20260507164003 20 235 0.0 14.5 0.00 0.84 0.03 35 1007.5
20260507163506 19 294 0.0 14.5 0.00 0.84 0.03 37 1007.5
20260507163005 19 360 1.6 9.7 0.00 0.84 0.03 40 1007.5
20260507162503 18 169 0.0 16.1 0.00 0.84 0.03 36 1007.4
20260507162006 18 195 1.6 16.1 0.00 0.84 0.03 38 1007.6
20260507161504 18 359 1.6 16.1 0.00 0.84 0.03 37 1007.8
20260507161002 18 283 0.0 14.5 0.00 0.84 0.03 43 1007.9
20260507160506 18 233 0.0 24.1 0.00 0.84 0.03 39 1007.9
20260507160005 18 297 0.0 24.1 0.00 0.84 0.03 40 1008.0
20260507155503 18 202 1.6 9.7 0.00 0.84 0.03 39 1008.0
20260507155004 18 335 0.0 12.9 0.00 0.84 0.03 43 1007.9
20260507154506 18 1 0.0 16.1 0.00 0.84 0.03 43 1007.9
20260507154004 17 359 1.6 16.1 0.00 0.84 0.03 49 1007.8
20260507153504 17 69 1.6 16.1 0.00 0.84 0.03 47 1008.0
20260507153006 17 213 1.6 16.1 0.00 0.84 0.03 45 1008.1
20260507152503 16 41 1.6 16.1 0.00 0.84 0.03 50 1008.1
20260507152003 16 276 1.6 11.3 0.00 0.84 0.03 56 1008.2
20260507151506 16 236 1.6 6.4 0.00 0.84 0.03 57 1008.1
20260507151003 16 52 0.0 14.5 0.00 0.84 0.03 53 1008.1
20260507150505 16 243 1.6 14.5 0.00 0.84 0.03 51 1008.2
20260507150010 17 4 0.0 11.3 0.00 0.84 0.03 53 1008.2
20260507145501 17 139 1.6 16.1 0.00 0.84 0.03 53 1008.3
20260507145004 17 25 3.2 16.1 0.00 0.84 0.03 55 1008.2
20260507144509 16 248 1.6 12.9 0.00 0.84 0.03 55 1008.3
20260507144003 16 112 3.2 12.9 0.00 0.84 0.03 55 1008.4
20260507143503 16 231 1.6 8.0 0.00 0.84 0.03 55 1008.3
20260507143015 16 48 1.6 8.0 0.00 0.84 0.03 57 1008.3
20260507142505 15 209 1.6 11.3 0.00 0.84 0.03 59 1008.3
20260507142003 15 356 1.6 12.9 0.00 0.84 0.03 64 1008.3
20260507141508 15 269 3.2 12.9 0.00 0.84 0.03 59 1008.3
20260507141004 15 132 1.6 12.9 0.00 0.84 0.03 60 1008.2
20260507140503 15 240 3.2 11.3 0.00 0.84 0.03 62 1008.2
20260507140007 15 351 1.6 11.3 0.00 0.84 0.03 64 1008.2
20260507135504 14 229 1.6 9.7 0.00 0.84 0.03 67 1008.2
20260507135004 13 317 0.0 8.0 0.00 0.84 0.03 70 1008.2
20260507134509 13 289 0.0 4.8 0.00 0.84 0.03 66 1008.2
20260507134003 13 307 0.0 8.0 0.00 0.84 0.03 69 1008.2
20260507133503 13 155 0.0 8.0 0.00 0.84 0.03 67 1008.3
20260507133007 13 328 0.0 6.4 0.00 0.84 0.03 71 1008.3
20260507132503 13 279 1.6 6.4 0.00 0.84 0.03 71 1008.3
20260507132003 12 294 0.0 9.7 0.00 0.84 0.03 70 1008.5
20260507131513 12 283 0.0 9.7 0.00 0.84 0.03 71 1008.6
20260507131004 12 153 0.0 9.7 0.00 0.84 0.03 71 1008.7
20260507130503 12 264 0.0 9.7 0.00 0.84 0.03 71 1008.7
20260507130029 12 359 1.6 9.7 0.00 0.84 0.03 75 1008.7
20260507125503 12 278 0.0 8.0 0.00 0.84 0.03 74 1008.7
20260507125007 11 333 0.0 8.0 0.00 0.84 0.03 74 1008.7
20260507124512 11 349 0.0 9.7 0.00 0.84 0.03 72 1008.7
20260507124007 11 188 0.0 9.7 0.00 0.84 0.03 74 1008.7
20260507123504 11 339 1.6 11.3 0.00 0.84 0.03 76 1008.6
20260507123011 11 360 1.6 12.9 0.00 0.84 0.03 76 1008.7
20260507122503 11 13 1.6 16.1 0.00 0.84 0.03 78 1008.8
20260507122006 11 32 3.2 16.1 0.00 0.84 0.03 80 1008.9
20260507121509 11 342 3.2 11.3 0.00 0.84 0.03 81 1008.9
20260507121003 10 360 0.0 9.7 0.00 0.84 0.03 80 1008.9
20260507120504 10 240 0.0 8.0 0.00 0.84 0.03 82 1008.9
20260507120012 10 360 0.0 6.4 0.00 0.84 0.03 85 1008.8
20260507115504 10 1 0.0 4.8 0.00 0.84 0.03 86 1008.8
20260507115003 10 20 0.0 0.0 0.00 0.84 0.03 86 1008.8
20260507114514 10 20 0.0 0.0 0.00 0.84 0.03 85 1008.8
20260507114003 10 354 0.0 0.0 0.00 0.84 0.03 85 1008.9
20260507113506 10 354 0.0 0.0 0.00 0.84 0.03 85 1008.9
20260507113011 9 354 0.0 0.0 0.00 0.84 0.03 86 1008.8
20260507112504 9 354 0.0 0.0 0.00 0.84 0.03 86 1008.8
20260507112006 9 354 0.0 3.2 0.00 0.84 0.03 85 1008.6
20260507111515 9 1 0.0 3.2 0.00 0.84 0.03 87 1008.6
20260507111004 9 1 0.0 3.2 0.00 0.84 0.03 86 1008.7
20260507110506 9 297 0.0 0.0 0.00 0.84 0.03 86 1008.7
20260507110015 9 1 0.0 0.0 0.00 0.84 0.03 87 1008.7
20260507105504 9 1 0.0 0.0 0.00 0.84 0.03 86 1008.6
20260507105008 9 1 0.0 0.0 0.00 0.84 0.03 88 1008.5
20260507104517 9 1 0.0 0.0 0.00 0.84 0.03 88 1008.4
20260507104004 9 1 0.0 4.8 0.00 0.84 0.03 87 1008.2
20260507103503 9 1 0.0 4.8 0.00 0.84 0.03 86 1008.0
20260507103016 9 359 0.0 0.0 0.00 0.84 0.03 87 1008.0
20260507102504 9 359 0.0 0.0 0.00 0.84 0.03 88 1008.0
20260507102006 9 359 0.0 0.0 0.00 0.84 0.03 88 1008.0
20260507101516 9 359 0.0 0.0 0.00 0.84 0.03 87 1007.9
20260507101004 9 359 0.0 0.0 0.00 0.84 0.03 88 1007.9
20260507100506 9 359 0.0 0.0 0.00 0.84 0.03 88 1008.0
20260507100017 9 359 0.0 6.4 0.00 0.84 0.03 88 1007.8
20260507095507 9 359 0.0 6.4 0.00 0.84 0.03 88 1007.8
20260507095009 9 352 0.0 0.0 0.00 0.84 0.03 88 1007.8
20260507094517 9 352 0.0 0.0 0.00 0.84 0.03 89 1007.9
20260507094006 9 352 0.0 0.0 0.00 0.84 0.03 89 1008.2
20260507093504 9 352 0.0 0.0 0.00 0.84 0.03 89 1008.1
20260507093016 9 352 0.0 0.0 0.00 0.84 0.03 89 1008.2
20260507092506 9 352 0.0 0.0 0.00 0.84 0.03 89 1008.2
20260507092008 9 352 0.0 0.0 0.00 0.84 0.03 88 1008.1
20260507091522 9 352 0.0 3.2 0.00 0.84 0.03 88 1008.1
20260507091005 9 352 0.0 3.2 0.00 0.84 0.03 89 1008.0
20260507090508 9 349 0.0 0.0 0.00 0.84 0.03 89 1008.2
20260507090021 9 285 0.0 1.6 0.00 0.84 0.03 89 1008.1
20260507085505 9 285 0.0 1.6 0.03 0.84 0.03 88 1008.2
20260507085005 9 297 0.0 0.0 0.03 0.84 0.03 89 1007.9
20260507084521 9 250 0.0 4.8 0.03 0.84 0.03 89 1008.0
20260507084003 10 250 0.0 4.8 0.03 0.84 0.03 88 1008.4
20260507083507 10 285 0.0 0.0 0.03 0.84 0.03 89 1008.1
20260507083003 10 288 0.0 0.0 0.03 0.84 0.03 89 1007.8
20260507082502 10 288 0.0 0.0 0.03 0.84 0.03 88 1008.0
20260507082002 10 288 0.0 0.0 0.03 0.84 0.03 88 1007.8
20260507081503 10 288 0.0 0.0 0.03 0.84 0.03 87 1007.8
20260507081003 10 288 0.0 0.0 0.03 0.84 0.03 87 1007.9
20260507080503 10 285 0.0 0.0 0.03 0.84 0.03 87 1007.7
20260507080004 10 283 0.0 0.0 0.03 0.84 0.03 87 1007.6
20260507075503 10 270 0.0 3.2 0.00 0.81 0.00 85 1007.5
20260507075003 10 269 0.0 6.4 0.00 0.81 0.00 85 1007.7
20260507074508 10 234 0.0 6.4 0.00 0.81 0.00 85 1007.7
20260507074003 10 244 0.0 4.8 0.00 0.81 0.00 86 1007.9
20260507073503 10 323 0.0 1.6 0.00 0.81 0.00 86 1008.0
20260507073010 10 18 0.0 1.6 0.00 0.81 0.00 87 1007.9
20260507072504 10 360 0.0 1.6 0.00 0.81 0.00 88 1007.6
20260507072007 11 360 0.0 0.0 0.00 0.81 0.00 87 1007.6
20260507071503 11 360 0.0 0.0 0.00 0.81 0.00 87 1007.4
20260507071003 11 9 0.0 0.0 0.00 0.81 0.00 87 1007.4
20260507070502 11 9 0.0 9.7 0.00 0.81 0.00 87 1007.3
20260507070009 11 9 1.6 9.7 0.00 0.81 0.00 87 1007.2
20260507065502 11 269 0.0 6.4 0.00 0.81 0.00 88 1007.6
20260507065004 11 230 0.0 6.4 0.00 0.81 0.00 88 1007.5
20260507064506 11 342 0.0 0.0 0.00 0.81 0.00 89 1007.2
20260507064004 11 313 0.0 1.6 0.00 0.81 0.00 88 1007.1
20260507063503 11 313 0.0 1.6 0.00 0.81 0.00 88 1007.2
20260507063009 11 51 0.0 1.6 0.00 0.81 0.00 89 1007.2
20260507062503 11 359 0.0 0.0 0.00 0.81 0.00 89 1007.2
20260507062006 11 359 0.0 0.0 0.00 0.81 0.00 89 1007.0
20260507061514 11 359 0.0 0.0 0.00 0.81 0.00 88 1007.1
20260507061009 11 359 0.0 0.0 0.00 0.81 0.00 89 1007.1
20260507060506 11 359 0.0 0.0 0.00 0.81 0.00 88 1007.1
20260507060020 11 359 0.0 0.0 0.00 0.81 0.00 88 1007.3
20260507055503 11 359 0.0 3.2 0.00 0.81 0.00 88 1007.2
20260507055002 11 359 0.0 3.2 0.00 0.81 0.00 87 1007.4
20260507054504 11 333 0.0 1.6 0.00 0.81 0.00 88 1007.5
20260507054004 11 319 0.0 0.0 0.00 0.81 0.00 88 1007.6
20260507053504 11 319 0.0 0.0 0.00 0.81 0.00 87 1007.8
20260507053008 11 195 0.0 3.2 0.00 0.81 0.00 88 1007.7
20260507052503 11 195 0.0 6.4 0.00 0.81 0.00 87 1007.7
20260507052003 11 300 0.0 6.4 0.00 0.81 0.00 88 1007.9
20260507051512 11 268 0.0 6.4 0.00 0.81 0.00 89 1007.6
20260507051007 11 179 0.0 6.4 0.00 0.81 0.00 88 1007.7
20260507050507 12 224 0.0 0.0 0.00 0.81 0.00 89 1007.8
20260507050033 12 210 0.0 6.4 0.00 0.81 0.00 88 1007.8
20260507045509 12 183 0.0 6.4 0.00 0.81 0.00 89 1007.7
20260507045008 12 238 0.0 4.8 0.00 0.81 0.00 90 1007.6
20260507044522 12 1 0.0 4.8 0.00 0.81 0.00 90 1007.3
20260507044009 12 1 0.0 3.2 0.00 0.81 0.00 89 1007.2
20260507043504 12 340 0.0 6.4 0.00 0.81 0.00 89 1007.5
20260507043004 12 335 0.0 8.0 0.00 0.81 0.00 88 1007.6
20260507042505 12 311 0.0 8.0 0.00 0.81 0.00 89 1007.5
20260507042004 13 359 1.6 8.0 0.00 0.81 0.00 90 1007.4
20260507041520 13 333 0.0 6.4 0.00 0.81 0.00 92 1007.6
20260507041005 13 345 0.0 0.0 0.00 0.81 0.00 92 1007.6
20260507040504 13 238 0.0 0.0 0.00 0.81 0.00 92 1007.6
20260507040014 13 238 0.0 0.0 0.00 0.81 0.00 91 1007.6
20260507035504 13 238 0.0 0.0 0.00 0.81 0.81 91 1007.4
20260507035004 13 238 0.0 0.0 0.00 0.81 0.81 91 1007.4
20260507034516 13 142 0.0 0.0 0.00 0.81 0.81 90 1007.2
20260507034006 13 278 0.0 0.0 0.00 0.81 0.81 90 1007.1
20260507033507 13 210 0.0 3.2 0.00 0.81 0.81 90 1007.0
20260507033021 13 27 0.0 3.2 0.00 0.81 0.81 89 1007.0
20260507032507 14 185 0.0 0.0 0.00 0.81 0.81 89 1006.9
20260507032003 14 271 0.0 3.2 0.00 0.81 0.81 90 1006.7
20260507031509 14 268 0.0 4.8 0.00 0.81 0.81 91 1006.5
20260507031004 14 314 0.0 9.7 0.00 0.81 0.81 91 1006.5
20260507030507 15 353 0.0 12.9 0.00 0.81 0.81 92 1006.3
20260507030018 15 359 1.6 12.9 0.00 0.81 0.81 93 1006.4
20260507025505 15 335 0.0 8.0 0.00 0.81 0.81 94 1006.5
20260507025004 15 290 0.0 4.8 0.00 0.81 0.81 95 1006.4
20260507024522 15 175 0.0 0.0 0.00 0.81 0.81 95 1006.5
20260507024004 15 212 0.0 0.0 0.00 0.81 0.81 95 1006.3
20260507023505 15 179 0.0 0.0 0.00 0.81 0.81 95 1006.3
20260507023017 15 179 0.0 0.0 0.00 0.81 0.81 95 1006.3
20260507022509 15 179 0.0 0.0 0.00 0.81 0.81 94 1006.4
20260507022007 15 179 0.0 0.0 0.00 0.81 0.81 94 1006.3
20260507021522 15 202 0.0 0.0 0.00 0.81 0.81 94 1006.1
20260507021007 15 200 0.0 0.0 0.00 0.81 0.81 94 1006.0
20260507020507 15 204 0.0 1.6 0.00 0.81 0.81 94 1005.8
20260507020007 15 167 0.0 8.0 0.00 0.81 0.81 94 1005.8
20260507015508 15 178 0.0 8.0 0.00 0.81 0.81 94 1006.0
20260507015004 15 191 0.0 8.0 0.00 0.81 0.81 94 1006.0
20260507014514 15 193 0.0 6.4 0.00 0.81 0.81 94 1006.0
20260507014008 15 195 0.0 8.0 0.00 0.81 0.81 94 1006.0
20260507013504 15 179 0.0 9.7 0.00 0.81 0.81 94 1006.0
20260507013016 15 143 0.0 9.7 0.00 0.81 0.81 94 1006.0
20260507012506 15 175 1.6 9.7 0.00 0.81 0.81 94 1006.0
20260507012009 15 210 0.0 1.6 0.00 0.81 0.81 94 1006.0
20260507011524 15 169 0.0 0.0 0.00 0.81 0.81 94 1006.1
20260507011006 15 201 0.0 8.0 0.00 0.81 0.81 94 1006.1
20260507010507 15 202 1.6 9.7 0.00 0.81 0.81 94 1006.1
20260507010030 15 205 1.6 9.7 0.00 0.81 0.81 94 1006.1
20260507005508 15 149 0.0 6.4 0.00 0.81 0.81 94 1006.1
20260507005009 15 215 0.0 6.4 0.00 0.81 0.81 94 1006.2
20260507004529 15 180 0.0 6.4 0.00 0.81 0.81 94 1006.0
20260507004005 15 150 0.0 9.7 0.00 0.81 0.81 94 1006.0
20260507003506 15 183 0.0 9.7 0.03 0.81 0.81 94 1006.0
20260507003014 15 176 0.0 4.8 0.03 0.81 0.81 94 1005.9
20260507002505 15 212 0.0 4.8 0.03 0.81 0.81 94 1005.8
20260507002006 15 198 0.0 16.1 0.03 0.81 0.81 94 1005.7
20260507001518 15 205 0.0 16.1 0.03 0.81 0.81 94 1005.8
20260507001007 15 202 1.6 16.1 0.03 0.81 0.81 94 1005.9
20260507000506 15 204 0.0 12.9 0.03 0.81 0.81 94 1006.0
20260507000024 15 190 1.6 12.9 0.08 0.81 0.81 94 1005.8
20260506235506 15 188 0.0 9.7 0.10 0.81 0.81 94 1005.6
20260506235006 15 201 0.0 12.9 0.13 0.81 0.81 94 1005.6
20260506234530 15 169 1.6 12.9 0.13 0.81 0.81 95 1005.5
20260506234004 15 167 0.0 12.9 0.15 0.81 0.81 94 1005.5
20260506233507 15 145 1.6 17.7 0.15 0.79 0.79 94 1005.5
20260506233012 15 172 3.2 17.7 0.15 0.79 0.79 94 1005.5
20260506232504 15 200 1.6 9.7 0.15 0.79 0.79 94 1005.5
20260506232007 15 245 0.0 12.9 0.15 0.79 0.79 94 1005.6
20260506231516 15 193 1.6 12.9 0.15 0.79 0.79 94 1005.5
20260506231012 15 163 0.0 9.7 0.18 0.79 0.79 94 1005.5
20260506230501 15 125 0.0 9.7 0.18 0.79 0.79 94 1005.6
20260506230012 15 116 0.0 6.4 0.13 0.74 0.74 94 1005.7
20260506225503 15 159 0.0 11.3 0.10 0.71 0.71 94 1005.8
20260506225003 15 116 0.0 11.3 0.10 0.69 0.69 94 1006.0
20260506224508 15 126 1.6 11.3 0.10 0.69 0.69 94 1006.0
20260506224004 15 199 0.0 11.3 0.10 0.66 0.66 93 1006.0
20260506223504 15 186 1.6 11.3 0.10 0.64 0.64 93 1006.0
20260506223006 15 165 0.0 12.9 0.10 0.64 0.64 93 1006.0
20260506222504 15 189 3.2 14.5 0.10 0.64 0.64 93 1005.9
20260506222006 15 193 0.0 14.5 0.13 0.64 0.64 93 1005.9
20260506221514 15 172 1.6 14.5 0.13 0.64 0.64 93 1006.0
20260506221003 15 198 1.6 14.5 0.10 0.61 0.61 93 1006.1
20260506220503 15 159 1.6 12.9 0.10 0.61 0.61 93 1006.1
20260506220017 15 157 0.0 11.3 0.13 0.61 0.61 93 1006.1
20260506215505 15 199 0.0 11.3 0.18 0.61 0.61 93 1006.1
20260506215003 15 221 3.2 12.9 0.18 0.58 0.58 93 1006.1
20260506214504 15 171 1.6 12.9 0.20 0.58 0.58 92 1006.2
20260506214004 16 210 1.6 16.1 0.20 0.56 0.56 92 1006.2
20260506213503 16 124 6.4 16.1 0.20 0.53 0.53 92 1006.1
20260506213006 16 157 4.8 14.5 0.23 0.53 0.53 92 1006.1
20260506212503 16 179 0.0 11.3 0.25 0.53 0.53 93 1006.1
20260506212003 16 157 1.6 20.9 0.23 0.51 0.51 92 1006.2
20260506211508 16 193 1.6 20.9 0.25 0.51 0.51 92 1006.3
20260506211003 16 210 1.6 14.5 0.28 0.51 0.51 92 1006.4
20260506210504 16 150 1.6 17.7 0.28 0.51 0.51 92 1006.5
20260506210014 16 200 0.0 17.7 0.28 0.48 0.48 92 1006.6
20260506205504 16 158 3.2 17.7 0.23 0.43 0.43 92 1006.6
20260506205004 16 179 0.0 14.5 0.20 0.41 0.41 91 1006.8
20260506204518 16 165 1.6 14.5 0.18 0.38 0.38 91 1006.7
20260506204008 16 212 1.6 12.9 0.15 0.36 0.36 91 1006.9
20260506203508 16 159 3.2 14.5 0.13 0.33 0.33 90 1006.8
20260506203004 16 172 3.2 14.5 0.10 0.30 0.30 90 1006.7
20260506202504 16 221 0.0 11.3 0.08 0.28 0.28 90 1006.7
20260506202004 17 134 1.6 14.5 0.08 0.28 0.28 89 1006.7
20260506201525 17 204 0.0 14.5 0.05 0.25 0.25 89 1006.7
20260506201004 17 201 0.0 12.9 0.05 0.23 0.23 89 1006.9
20260506200504 17 193 4.8 16.1 0.05 0.23 0.23 88 1006.9
20260506200009 17 120 1.6 16.1 0.03 0.20 0.20 88 1006.8
20260506195504 17 199 0.0 12.9 0.05 0.20 0.20 88 1006.9
20260506195007 17 191 0.0 12.9 0.05 0.20 0.20 88 1006.9
20260506194514 17 183 1.6 12.9 0.08 0.20 0.20 88 1006.9
20260506194009 17 180 3.2 12.9 0.10 0.20 0.20 88 1006.9
20260506193508 17 213 3.2 12.9 0.13 0.20 0.20 88 1006.8
20260506193025 17 128 1.6 8.0 0.13 0.20 0.20 89 1006.8